Location: Lombard
(41.8800°N, 88.0080°W)
Time: 03:09:55
(UTC-06:00)

SR - All Passes

Search period start: 28 January 2023 00:00
Search period end: 07 February 2023 00:00
Orbit: 581 x 870 km, 66.7° (Epoch: 27 January)

Date Brightness Start Highest point End Pass type
(mag) Time Alt. Az. Time Alt. Az. Time Alt. Az.
28 Jan - 00:41:45 10° NNW 00:46:04 74° ENE 00:50:17 10° SE night (unlit)
28 Jan - 15:10:51 10° S 15:15:59 49° ESE 15:20:44 10° NE daylight
28 Jan - 16:53:57 10° WSW 16:58:10 25° NW 17:02:08 10° N daylight
28 Jan - 23:51:34 10° NNW 23:55:30 33° NE 23:59:21 10° ESE night (unlit)
29 Jan - 01:33:53 10° WNW 01:37:15 23° WSW 01:40:35 10° SSW night (unlit)
29 Jan - 14:21:31 10° SSE 14:25:43 24° ESE 14:29:42 10° ENE daylight
29 Jan - 16:02:28 10° SW 16:07:30 45° NW 16:12:10 10° NNE daylight
29 Jan - 23:01:48 10° N 23:04:44 17° NE 23:07:37 10° E night (unlit)
30 Jan - 00:42:52 10° NW 00:47:02 53° WSW 00:51:09 10° SSE night (unlit)
30 Jan - 13:34:04 10° ESE 13:35:36 11° ESE 13:37:07 10° E daylight
30 Jan - 15:11:40 10° SSW 15:16:59 90° SSE 15:21:53 10° NNE daylight
30 Jan - 16:56:38 10° WNW 16:59:34 15° NW 17:02:22 10° N daylight
30 Jan - 23:52:22 10° NNW 23:56:38 65° ENE 00:00:50 10° SE night (unlit)
31 Jan - 01:36:41 10° W 01:37:58 11° WSW 01:39:15 10° WSW night (unlit)
31 Jan - 14:21:36 10° S 14:26:37 44° ESE 14:31:15 10° NE daylight
31 Jan - 16:04:23 10° WSW 16:08:43 27° NW 16:12:48 10° N daylight
31 Jan - 23:02:14 10° NNW 23:06:03 30° NE 23:09:47 10° ESE night (unlit)
01 Feb - 00:44:20 10° NW 00:47:53 26° WSW 00:51:25 10° SSW night (unlit)
01 Feb - 13:32:25 10° SSE 13:36:22 21° ESE 13:40:05 10° ENE daylight
01 Feb - 15:13:00 10° SW 15:18:05 50° NW 15:22:46 10° NNE daylight
01 Feb - 22:12:35 10° N 22:15:14 16° NE 22:17:53 10° E night (unlit)
01 Feb - 23:53:25 10° NW 23:57:38 62° WSW 00:01:48 10° SSE night (unlit)
02 Feb - 14:22:18 10° SSW 14:27:36 81° ESE 14:32:26 10° NNE daylight
02 Feb - 16:06:55 10° W 16:10:05 16° NW 16:13:06 10° N daylight
02 Feb - 23:02:58 10° NNW 23:07:12 57° ENE 23:11:22 10° SE night (unlit)
03 Feb - 00:46:40 10° WNW 00:48:37 13° WSW 00:50:33 10° SW night (unlit)
03 Feb - 13:32:21 10° S 13:37:14 39° ESE 13:41:45 10° NE daylight
03 Feb - 15:14:48 10° WSW 15:19:16 29° NW 15:23:27 10° N daylight
03 Feb - 22:12:54 10° N 22:16:35 27° NE 22:20:12 10° ESE night (unlit)
03 Feb - 23:54:47 10° NW 23:58:30 30° WSW 00:02:12 10° S night (unlit)
04 Feb - 12:43:22 10° SSE 12:47:00 19° ESE 12:50:26 10° ENE daylight
04 Feb - 14:23:32 10° SW 14:28:39 56° WNW 14:33:22 10° NNE daylight
04 Feb - 21:23:21 10° N 21:25:44 14° NE 21:28:05 10° ENE night (unlit)
04 Feb - 23:03:58 10° NW 23:08:13 71° WSW 23:12:26 10° SSE night (unlit)
05 Feb - 13:32:57 10° SSW 13:38:10 73° ESE 13:42:59 10° NE daylight
05 Feb - 15:17:12 10° W 15:20:35 18° NW 15:23:49 10° N daylight
05 Feb - 22:13:35 10° NNW 22:17:45 50° NE 22:21:52 10° SE night (unlit)
05 Feb - 23:56:50 10° WNW 23:59:14 15° WSW 00:01:38 10° SW night (unlit)
06 Feb - 12:43:07 10° S 12:47:50 35° ESE 12:52:13 10° NE daylight
06 Feb - 14:25:14 10° WSW 14:29:48 32° NW 14:34:04 10° NNE daylight
06 Feb - 21:23:34 10° N 21:27:05 24° NE 21:30:33 10° ESE night (unlit)
06 Feb - 23:05:15 10° NW 23:09:05 34° WSW 23:12:55 10° S night (unlit)
